Precipitable_Water
0.52 0.52 0.52 0.53 0.53 0.53 0.53 0.53 0.56 0.62 0.62 0.60 0.63 0.64 0.64 0.62 0.61 0.60 0.58 0.59 0.58 0.58 0.63 0.64 0.69 0.70 0.63 0.48 0.47 0.73 0.78 0.80 0.80 0.77 0.66 0.63 0.58 0.58 0.47 0.52 0.55 0.47 0.47 0.49 0.51 0.53 0.52
0.53 0.53 0.52 0.52 0.53 0.52 0.54 0.55 0.57 0.60 0.63 0.61 0.60 0.64 0.64 0.62 0.60 0.58 0.57 0.57 0.57 0.57 0.59 0.63 0.68 0.69 0.54 0.36 0.69 0.76 0.77 0.79 0.77 0.78 0.73 0.71 0.64 0.69 0.59 0.54 0.53 0.56 0.53 0.50 0.52 0.53 0.53
0.53 0.53 0.51 0.52 0.52 0.53 0.54 0.55 0.59 0.66 0.69 0.63 0.60 0.62 0.66 0.63 0.62 0.59 0.56 0.56 0.56 0.56 0.58 0.62 0.65 0.64 0.49 0.44 0.70 0.76 0.79 0.78 0.84 0.80 0.69 0.74 0.73 0.64 0.63 0.54 0.61 0.57 0.46 0.49 0.48 0.50 0.47
0.54 0.53 0.50 0.51 0.52 0.53 0.55 0.57 0.64 0.71 0.74 0.72 0.61 0.59 0.66 0.65 0.61 0.57 0.56 0.54 0.55 0.55 0.58 0.60 0.62 0.59 0.41 0.62 0.70 0.70 0.75 0.76 0.83 0.83 0.77 0.80 0.79 0.66 0.60 0.62 0.55 0.48 0.48 0.36 0.45 0.47 0.49
0.54 0.54 0.54 0.53 0.54 0.53 0.55 0.59 0.65 0.68 0.70 0.73 0.68 0.60 0.63 0.65 0.60 0.56 0.56 0.55 0.55 0.57 0.57 0.59 0.51 0.48 0.37 0.62 0.53 0.64 0.71 0.64 0.72 0.76 0.79 0.79 0.76 0.60 0.57 0.46 0.40 0.46 0.34 0.36 0.39 0.50 0.48
0.57 0.55 0.57 0.55 0.55 0.54 0.54 0.61 0.63 0.64 0.65 0.70 0.72 0.62 0.63 0.63 0.59 0.56 0.55 0.55 0.55 0.53 0.54 0.52 0.48 0.37 0.43 0.40 0.51 0.57 0.67 0.68 0.61 0.63 0.61 0.61 0.57 0.47 0.48 0.43 0.29 0.33 0.35 0.41 0.40 0.46 0.46
0.61 0.61 0.61 0.59 0.57 0.55 0.54 0.60 0.63 0.63 0.63 0.67 0.72 0.62 0.62 0.63 0.59 0.56 0.52 0.45 0.36 0.34 0.39 0.31 0.30 0.32 0.40 0.49 0.56 0.52 0.61 0.58 0.57 0.53 0.39 0.49 0.40 0.32 0.37 0.41 0.44 0.43 0.39 0.37 0.43 0.49 0.46
0.64 0.64 0.64 0.62 0.61 0.59 0.57 0.60 0.63 0.62 0.62 0.64 0.70 0.61 0.62 0.61 0.61 0.56 0.50 0.36 0.38 0.42 0.29 0.38 0.39 0.37 0.44 0.50 0.38 0.45 0.59 0.43 0.42 0.34 0.41 0.38 0.32 0.39 0.42 0.43 0.42 0.42 0.39 0.37 0.42 0.49 0.46
0.64 0.65 0.67 0.65 0.62 0.57 0.55 0.59 0.65 0.63 0.61 0.63 0.67 0.63 0.62 0.61 0.62 0.52 0.46 0.44 0.57 0.56 0.33 0.33 0.38 0.34 0.36 0.43 0.36 0.38 0.48 0.43 0.37 0.34 0.34 0.31 0.35 0.42 0.40 0.38 0.36 0.37 0.35 0.37 0.37 0.42 0.46
0.62 0.62 0.64 0.65 0.61 0.58 0.54 0.56 0.62 0.65 0.63 0.63 0.66 0.64 0.60 0.59 0.48 0.51 0.44 0.57 0.60 0.56 0.29 0.26 0.31 0.37 0.39 0.38 0.32 0.44 0.49 0.42 0.37 0.30 0.33 0.33 0.38 0.35 0.35 0.34 0.37 0.29 0.38 0.37 0.36 0.37 0.31
0.56 0.59 0.61 0.63 0.62 0.58 0.57 0.55 0.58 0.64 0.65 0.64 0.67 0.65 0.62 0.57 0.49 0.44 0.53 0.59 0.59 0.51 0.16 0.28 0.33 0.49 0.43 0.31 0.31 0.34 0.46 0.40 0.31 0.31 0.32 0.27 0.30 0.30 0.30 0.33 0.40 0.34 0.41 0.38 0.36 0.36 0.34
0.52 0.53 0.56 0.60 0.62 0.59 0.58 0.57 0.55 0.62 0.65 0.63 0.66 0.67 0.63 0.54 0.53 0.54 0.60 0.57 0.52 0.25 0.17 0.27 0.35 0.34 0.33 0.33 0.30 0.32 0.34 0.39 0.37 0.29 0.31 0.29 0.37 0.36 0.34 0.38 0.40 0.41 0.38 0.37 0.35 0.32 0.23
0.49 0.51 0.52 0.54 0.57 0.59 0.59 0.59 0.58 0.57 0.63 0.63 0.62 0.66 0.63 0.60 0.44 0.61 0.59 0.48 0.23 0.18 0.26 0.25 0.29 0.35 0.34 0.30 0.29 0.29 0.25 0.23 0.22 0.19 0.19 0.25 0.26 0.32 0.36 0.31 0.36 0.37 0.32 0.24 0.22 0.20 0.18
0.53 0.52 0.51 0.52 0.52 0.54 0.59 0.59 0.59 0.58 0.60 0.63 0.60 0.59 0.64 0.61 0.64 0.66 0.56 0.33 0.19 0.21 0.22 0.30 0.30 0.32 0.30 0.33 0.30 0.29 0.25 0.20 0.25 0.25 0.21 0.18 0.18 0.26 0.34 0.32 0.28 0.30 0.29 0.22 0.16 0.17 0.19
0.62 0.57 0.53 0.53 0.52 0.52 0.52 0.53 0.58 0.59 0.60 0.60 0.59 0.58 0.54 0.61 0.67 0.65 0.45 0.24 0.23 0.25 0.29 0.29 0.30 0.26 0.26 0.30 0.32 0.30 0.27 0.24 0.25 0.26 0.19 0.18 0.17 0.27 0.30 0.34 0.33 0.27 0.24 0.28 0.21 0.23 0.21
0.71 0.68 0.62 0.58 0.58 0.55 0.50 0.51 0.50 0.56 0.60 0.61 0.45 0.45 0.48 0.64 0.64 0.54 0.34 0.26 0.27 0.32 0.33 0.33 0.25 0.29 0.25 0.28 0.28 0.31 0.28 0.31 0.28 0.31 0.33 0.26 0.16 0.22 0.26 0.30 0.33 0.27 0.29 0.20 0.21 0.13 0.13
0.82 0.75 0.72 0.68 0.64 0.60 0.56 0.51 0.49 0.51 0.58 0.58 0.44 0.32 0.50 0.64 0.60 0.41 0.24 0.26 0.30 0.36 0.36 0.30 0.29 0.28 0.29 0.28 0.31 0.29 0.29 0.34 0.37 0.32 0.34 0.29 0.24 0.19 0.22 0.20 0.21 0.22 0.21 0.22 0.21 0.19 0.14
0.75 0.83 0.80 0.76 0.73 0.68 0.62 0.57 0.53 0.52 0.53 0.49 0.39 0.26 0.56 0.60 0.32 0.32 0.26 0.28 0.34 0.34 0.39 0.35 0.35 0.31 0.29 0.30 0.29 0.30 0.29 0.32 0.43 0.39 0.32 0.33 0.27 0.20 0.19 0.25 0.29 0.27 0.23 0.22 0.16 0.15 0.17
0.72 0.72 0.74 0.79 0.77 0.75 0.71 0.63 0.58 0.57 0.57 0.44 0.33 0.34 0.53 0.52 0.24 0.24 0.28 0.30 0.35 0.34 0.35 0.33 0.31 0.34 0.36 0.31 0.26 0.30 0.33 0.40 0.44 0.41 0.35 0.37 0.28 0.22 0.22 0.25 0.31 0.26 0.25 0.24 0.22 0.21 0.16
0.69 0.71 0.70 0.72 0.73 0.77 0.74 0.72 0.62 0.57 0.60 0.51 0.35 0.25 0.37 0.44 0.39 0.28 0.25 0.26 0.27 0.36 0.33 0.35 0.33 0.35 0.33 0.31 0.35 0.31 0.32 0.38 0.45 0.44 0.45 0.42 0.33 0.28 0.23 0.25 0.28 0.26 0.27 0.28 0.24 0.18 0.16
0.53 0.60 0.67 0.73 0.69 0.75 0.81 0.75 0.69 0.62 0.62 0.52 0.36 0.29 0.33 0.24 0.28 0.31 0.31 0.28 0.26 0.26 0.33 0.35 0.31 0.32 0.31 0.27 0.31 0.31 0.36 0.37 0.42 0.45 0.45 0.42 0.33 0.34 0.34 0.34 0.32 0.31 0.29 0.28 0.25 0.24 0.18
0.48 0.47 0.47 0.54 0.64 0.74 0.78 0.82 0.78 0.70 0.65 0.47 0.28 0.25 0.33 0.30 0.32 0.27 0.28 0.24 0.24 0.27 0.29 0.28 0.28 0.30 0.33 0.30 0.32 0.30 0.34 0.37 0.36 0.43 0.42 0.43 0.35 0.37 0.33 0.36 0.34 0.30 0.30 0.30 0.29 0.28 0.26
0.46 0.47 0.48 0.47 0.46 0.52 0.68 0.84 0.86 0.81 0.68 0.48 0.43 0.40 0.31 0.28 0.27 0.26 0.25 0.25 0.26 0.30 0.31 0.33 0.33 0.32 0.31 0.35 0.39 0.41 0.43 0.44 0.44 0.41 0.39 0.39 0.37 0.36 0.31 0.35 0.35 0.28 0.29 0.30 0.31 0.31 0.29
0.42 0.43 0.45 0.47 0.48 0.50 0.50 0.62 0.88 0.92 0.78 0.56 0.48 0.40 0.30 0.21 0.24 0.23 0.27 0.29 0.29 0.32 0.31 0.35 0.37 0.34 0.41 0.49 0.49 0.46 0.44 0.44 0.44 0.45 0.46 0.40 0.39 0.38 0.33 0.36 0.25 0.31 0.38 0.37 0.34 0.35 0.35
0.42 0.39 0.43 0.46 0.46 0.47 0.48 0.49 0.59 0.89 0.97 0.73 0.56 0.44 0.32 0.21 0.25 0.25 0.27 0.26 0.29 0.34 0.35 0.35 0.39 0.45 0.51 0.46 0.36 0.31 0.31 0.32 0.37 0.45 0.47 0.48 0.42 0.36 0.33 0.32 0.33 0.34 0.36 0.36 0.34 0.33 0.39
0.45 0.45 0.44 0.45 0.47 0.46 0.45 0.46 0.49 0.60 0.87 0.89 0.72 0.59 0.42 0.27 0.22 0.29 0.25 0.28 0.26 0.27 0.30 0.38 0.47 0.51 0.49 0.40 0.34 0.26 0.24 0.28 0.29 0.37 0.50 0.50 0.48 0.40 0.37 0.30 0.26 0.35 0.40 0.43 0.41 0.31 0.42
0.41 0.42 0.40 0.41 0.45 0.46 0.45 0.47 0.49 0.49 0.73 0.83 0.79 0.71 0.54 0.35 0.33 0.34 0.27 0.25 0.31 0.30 0.28 0.33 0.41 0.44 0.49 0.37 0.31 0.28 0.27 0.33 0.28 0.31 0.37 0.41 0.42 0.38 0.38 0.34 0.35 0.43 0.46 0.46 0.32 0.34 0.45
0.41 0.41 0.41 0.41 0.45 0.46 0.47 0.55 0.54 0.50 0.63 0.76 0.75 0.86 0.58 0.43 0.42 0.41 0.39 0.33 0.33 0.33 0.28 0.34 0.37 0.40 0.40 0.34 0.32 0.31 0.30 0.33 0.32 0.37 0.39 0.38 0.37 0.38 0.40 0.36 0.33 0.53 0.48 0.41 0.46 0.52 0.53
0.44 0.43 0.40 0.40 0.44 0.48 0.51 0.66 0.69 0.58 0.60 0.76 0.66 0.83 0.84 0.55 0.47 0.55 0.51 0.50 0.46 0.44 0.40 0.41 0.37 0.38 0.43 0.38 0.38 0.37 0.33 0.36 0.35 0.31 0.46 0.37 0.43 0.42 0.45 0.43 0.54 0.59 0.58 0.61 0.62 0.58 0.58
Wind_Speed
2 2 4 5 7 8 9 10 11 12 11 10 9 9 9 10 11 12 13 14 18 21 22 25 26 27 26 24 22 19 16 16 14 12 11 11 9 9 9 9 10 14 18 22 26 27 30
0 2 4 5 7 8 9 10 11 12 13 12 10 10 11 11 12 12 13 13 16 20 21 24 25 26 26 24 22 19 17 16 14 12 11 10 10 9 8 7 10 9 12 17 20 25 27
1 2 4 5 6 8 9 10 11 12 13 13 12 11 11 12 12 12 12 13 15 18 20 21 23 24 24 24 22 19 17 15 14 12 11 12 11 8 5 6 8 11 12 14 19 22 25
2 3 5 6 7 8 9 10 11 12 13 14 13 12 12 13 13 12 12 12 13 17 18 19 22 21 22 23 22 19 17 15 14 13 12 12 11 8 5 5 6 8 9 9 7 16 20
3 4 5 6 7 8 9 10 11 12 13 14 14 12 12 13 13 12 11 11 12 14 17 17 20 19 21 23 22 20 17 15 15 13 11 11 11 9 6 5 6 4 8 8 10 11 17
5 5 6 7 7 8 10 11 12 13 13 14 14 12 13 13 13 11 10 10 11 12 14 16 18 17 20 22 21 19 18 15 15 14 11 9 9 10 8 7 6 4 4 5 8 8 15
6 6 7 7 8 9 10 11 12 13 13 15 14 12 13 12 12 11 10 10 11 9 11 15 16 17 20 21 20 19 18 17 14 13 13 10 9 10 9 7 9 5 7 8 8 5 10
8 7 7 8 8 9 10 11 12 13 14 15 15 12 13 12 11 10 10 10 10 9 10 12 15 16 18 19 18 18 19 18 15 13 13 10 9 12 10 8 7 7 8 5 5 2 5
10 9 9 9 9 9 10 11 12 13 14 15 15 12 12 12 10 10 10 10 10 9 9 11 13 15 16 17 17 17 18 18 15 14 14 11 12 12 8 8 7 5 3 5 6 3 2
12 11 11 10 10 10 10 11 12 13 14 15 14 12 12 11 9 10 10 10 9 9 8 11 12 13 14 15 14 16 16 16 15 15 15 12 12 12 10 8 9 7 3 5 2 3 2
14 14 13 12 12 12 12 12 12 13 14 15 14 12 11 11 10 10 10 10 9 8 8 11 12 13 14 13 15 14 16 14 14 15 14 13 13 13 11 10 10 8 10 7 4 3 3
17 16 16 15 14 14 14 13 13 14 14 15 14 12 11 10 10 9 9 9 8 7 8 11 12 12 13 12 12 13 13 14 14 14 11 13 13 11 10 11 8 9 8 5 5 3 1
19 19 18 18 17 16 16 15 15 15 15 15 14 11 10 10 9 9 9 8 8 8 10 11 12 13 13 12 12 12 13 13 14 15 14 14 11 12 11 10 9 11 11 7 6 5 3
22 22 21 21 20 19 18 18 17 16 16 16 15 12 11 9 9 9 9 8 7 8 10 11 12 12 11 12 10 12 11 11 11 12 12 13 11 12 12 11 11 11 11 9 7 7 4
26 25 25 24 23 22 21 20 20 19 18 17 16 13 12 11 10 9 9 8 8 9 10 11 12 10 11 11 11 12 10 10 10 10 11 11 9 9 9 10 10 10 10 11 8 5 3
28 28 27 27 26 25 24 24 23 22 20 20 17 15 14 12 11 11 10 10 9 9 9 10 10 10 12 12 12 12 10 8 9 9 10 10 10 8 9 9 7 9 9 9 8 7 5
33 31 30 30 29 29 27 26 25 24 23 21 19 17 15 14 14 13 12 12 11 10 10 10 11 11 11 12 12 11 10 9 8 9 9 9 8 8 8 7 8 8 8 8 8 6 5
33 33 35 34 33 32 30 29 28 27 25 22 21 19 17 16 16 15 15 13 13 12 12 13 12 13 12 11 12 11 11 10 9 9 10 8 8 9 8 6 6 6 7 6 6 6 5
34 35 35 36 37 36 34 32 31 29 26 25 24 23 21 20 19 18 17 17 16 15 14 12 13 12 13 13 13 12 12 11 10 10 9 8 7 10 6 4 5 6 6 5 4 3 1
36 37 37 38 38 39 37 36 34 31 30 27 25 24 22 22 22 21 19 19 18 17 16 15 14 13 13 14 14 15 14 13 12 12 11 10 10 9 9 11 9 9 6 5 4 3 2
37 38 38 39 40 40 41 39 37 35 33 31 29 29 26 23 23 22 21 19 18 19 19 17 16 17 15 15 15 15 15 15 14 14 12 12 13 11 14 16 14 13 11 9 8 8 5
38 39 40 40 41 42 43 44 42 39 36 35 32 30 29 29 27 25 24 23 23 21 20 20 20 17 17 17 17 18 17 16 16 13 14 14 14 14 15 11 9 11 13 10 10 10 11
39 40 41 42 42 43 44 45 46 44 41 38 37 35 32 31 29 29 28 26 25 22 23 21 21 19 19 22 21 21 19 19 18 16 16 15 16 14 14 12 15 12 6 6 6 6 7
41 42 42 42 43 44 45 46 48 49 47 44 39 37 35 36 34 33 30 28 27 26 25 23 22 22 20 19 20 20 20 20 20 20 18 16 16 16 16 16 13 9 9 8 8 8 10
42 43 43 44 44 45 45 47 50 53 52 48 45 41 38 39 37 37 34 31 29 28 28 27 25 23 22 21 21 20 19 18 17 16 17 17 17 16 15 14 15 12 11 10 9 6 8
42 42 43 44 45 46 48 50 51 54 56 53 50 47 42 39 41 38 34 33 32 29 28 28 26 25 23 21 19 19 18 18 16 15 13 13 14 15 13 14 13 11 12 12 11 9 9
43 43 44 44 45 46 47 49 52 53 55 54 50 50 45 44 42 35 35 34 31 30 27 25 25 25 24 22 21 20 20 18 18 17 15 14 15 18 17 15 16 15 14 14 15 13 14
41 41 42 43 43 43 45 48 48 50 53 52 50 50 49 44 44 39 39 34 30 30 29 26 24 25 23 23 22 21 21 20 20 18 17 17 15 15 15 16 19 16 16 15 15 16 17
41 41 41 41 42 41 40 36 40 46 49 51 47 49 49 45 42 44 44 39 37 34 31 30 28 25 24 23 23 21 21 21 20 20 18 19 19 16 17 16 15 16 16 17 18 20 20
Wind_Direction
94 49 26 17 14 13 12 12 10 8 4 354 349 346 339 335 332 334 338 344 351 355 357 360 2 3 4 5 2 359 353 354 353 349 344 338 325 306 281 274 267 252 252 245 243 239 235
106 12 5 3 4 4 4 4 3 3 1 355 346 342 339 335 331 330 334 338 347 353 356 0 3 6 8 9 3 2 0 355 353 353 352 350 341 326 289 279 259 279 271 251 244 239 235
275 334 345 349 352 354 355 355 356 356 356 354 346 340 338 337 333 330 331 335 343 351 355 360 3 7 9 11 9 5 4 4 6 8 0 358 350 339 324 284 267 279 277 264 246 239 234
275 316 331 337 342 345 347 348 349 349 350 350 346 340 339 337 334 331 330 333 339 350 356 360 5 7 9 11 10 9 10 8 7 3 1 2 2 1 343 309 293 278 277 278 260 239 232
273 305 322 329 333 337 341 343 344 345 346 347 346 341 339 339 338 335 333 335 338 349 357 1 6 9 12 11 12 12 11 7 3 358 1 8 13 9 354 332 319 289 293 272 279 241 232
272 296 313 322 328 333 337 340 341 342 344 345 344 341 340 340 340 339 338 337 340 344 357 4 7 10 10 10 11 12 12 9 8 6 6 5 6 13 14 3 347 332 326 314 283 268 232
270 288 303 315 324 331 335 338 340 341 342 343 343 339 341 340 342 343 343 342 343 343 353 3 6 8 7 9 14 17 15 12 11 16 16 15 0 354 348 353 355 341 320 317 312 305 219
268 281 294 305 316 325 332 336 339 340 341 341 341 338 340 340 341 342 342 344 348 345 348 357 2 3 7 12 14 18 18 17 19 15 15 15 1 3 355 350 337 331 341 337 330 15 215
266 275 286 295 304 314 323 331 337 340 340 341 340 336 339 338 338 342 343 343 342 345 345 355 359 3 7 11 14 15 18 19 19 22 17 14 6 7 12 3 350 335 296 352 16 309 221
265 272 280 288 295 304 314 322 330 336 339 341 340 337 337 338 337 339 341 340 341 344 345 354 358 4 6 8 13 14 17 19 22 15 16 16 16 12 8 6 12 6 12 343 298 13 359
263 268 274 280 287 293 303 312 320 327 332 337 339 336 336 342 337 338 340 340 342 345 348 350 352 357 358 3 3 17 15 20 14 12 19 21 17 14 16 21 14 15 3 352 344 284 335
263 267 271 275 280 286 292 301 309 317 324 329 331 331 332 334 338 340 342 343 345 348 337 352 349 352 355 360 3 2 11 14 11 11 17 8 19 27 21 11 26 4 1 349 5 340 308
263 265 268 272 275 280 285 290 298 306 313 320 321 319 323 326 332 335 340 341 341 350 347 349 349 350 349 352 355 2 3 9 13 12 17 11 27 26 23 23 38 22 15 20 22 24 25
266 266 267 269 272 275 279 283 289 295 302 310 312 308 309 313 318 326 330 333 340 334 332 341 342 340 347 351 353 354 355 1 9 8 4 14 19 23 26 28 24 30 30 28 10 11 8
264 266 266 267 270 272 275 278 281 287 293 299 300 297 296 297 300 311 314 316 315 323 333 335 337 338 342 346 342 346 352 353 1 5 3 2 1 8 13 19 18 20 19 21 14 35 38
265 265 266 267 269 270 273 274 277 280 285 291 287 288 286 285 288 295 300 300 309 317 327 333 334 337 335 336 338 339 339 351 351 355 358 1 345 3 1 357 12 8 12 15 30 25 31
265 264 264 266 267 269 271 273 275 277 279 281 278 278 278 279 281 285 284 287 295 302 311 319 322 324 323 330 329 329 327 328 336 344 345 346 350 355 349 2 0 3 9 18 20 32 43
267 266 264 265 266 266 267 269 271 273 276 273 272 270 270 272 277 279 279 279 287 292 298 305 313 315 318 321 323 319 315 314 317 324 330 337 336 333 345 351 351 354 4 10 17 36 43
269 267 267 265 264 265 265 267 268 267 269 269 267 266 267 267 270 272 276 277 278 281 285 293 301 303 314 315 317 313 310 311 305 305 312 320 321 325 339 1 352 340 344 349 1 7 7
271 269 268 267 266 263 263 263 263 263 262 263 263 265 262 262 265 269 271 273 276 274 281 284 293 298 305 308 305 313 310 307 298 297 298 297 301 294 303 315 322 310 312 302 302 306 315
273 271 270 268 267 264 261 260 259 260 258 258 257 260 261 260 260 261 264 269 269 273 276 274 284 282 290 300 305 305 305 304 297 294 289 286 285 286 287 292 294 290 284 273 257 258 261
274 273 272 270 268 266 262 258 256 256 254 255 257 257 258 261 259 257 259 263 264 270 267 272 274 282 277 288 293 303 303 300 297 290 286 281 283 284 289 291 285 289 281 267 258 260 258
276 274 273 272 269 267 264 259 254 252 249 253 254 256 257 257 256 255 257 259 263 264 267 270 268 275 277 280 288 295 296 298 294 286 279 282 279 280 275 284 291 282 264 245 259 255 240
278 277 274 273 271 268 266 261 255 250 248 249 251 252 252 256 253 253 257 257 257 259 267 270 267 270 279 285 290 292 295 293 290 280 279 278 276 273 275 282 264 266 261 265 264 262 242
279 278 276 274 272 270 268 264 257 250 246 247 247 247 250 254 253 253 253 257 259 260 262 264 265 271 273 282 287 292 292 295 296 289 275 271 270 272 269 266 272 260 255 256 258 268 282
280 279 277 276 273 272 271 267 261 251 244 244 245 244 248 252 252 252 251 252 255 257 260 263 265 264 269 275 281 283 288 294 291 287 284 274 270 265 265 262 263 261 259 257 256 257 281
279 279 279 278 276 275 275 272 261 250 242 240 245 240 243 248 249 249 249 251 251 253 259 260 259 261 262 267 272 277 281 287 287 279 270 270 268 259 257 262 263 265 260 254 252 260 268
281 281 281 280 279 279 280 276 261 248 239 236 240 238 238 246 247 247 247 247 249 250 252 255 256 258 260 261 268 274 277 281 285 279 269 260 258 263 260 256 258 264 260 263 261 264 267
283 282 283 282 279 280 282 281 263 244 237 233 238 237 236 241 248 246 246 247 248 249 249 249 258 258 254 261 266 271 274 278 281 278 268 266 262 261 257 261 259 263 262 261 266 270 272